Location: Bern�tre
(50.1974°N, 2.0915°E)
Time: 05:38:58
(UTC+00:00)

ATLAS CENTAUR R/B - Pass Details

Date: 18 September 2020
Orbit: 479 x 667 km, 64.7° (Epoch: 12 October)

Event Time Altitude Azimuth Distance (km) Brightness Sun altitude
Rises 19:26:53 0° 277° (W) 2,638 6.4 -14.7°
Reaches altitude 10° 19:29:57 10° 302° (WNW) 1,719 5.2 -15.2°
Maximum altitude 19:32:05 14° 337° (NNW) 1,450 4.1 -15.5°
Drops below altitude 10° 19:34:12 10° 11° (N) 1,687 3.9 -15.8°
Sets 19:37:10 0° 37° (NE) 2,554 4.6 -16.3°
